Regional Weather Roundup
Issued by NWS Cleveland, OH

Home | Current Version | Previous Version | Graphics & Text | Print | Product List | Glossary Off
Versions: 1 2 3 4 5 6 7 8 9 10 11 12 13 14 15 16 17 18 19 20 21 22 23 24 25 26 27 28 29 30 31 32 33 34 35 36 37 38 39 40 41 42 43 44 45 46 47 48 49 50

000
ASUS41 KCLE 111712
RWRCLE
OHIO REGIONAL WEATHER ROUNDUP
NATIONAL WEATHER SERVICE WILMINGTON, OH
1200 PM EST THU FEB 11 2016

NOTE: "FAIR" INDICATES FEW OR NO CLOUDS BELOW 12,000 FEET WITH NO
SIGNIFICANT WEATHER AND/OR OBSTRUCTIONS TO VISIBILITY.

OHZ001>008-015>018-024>027-034-035-043-044-111800-
   NORTHWEST OHIO

CITY           SKY/WX    TMP DP  RH WIND       PRES   REMARKS
DEFIANCE       PTSUNNY   20   6  55 NW8       30.27R WCI  10
FINDLAY        CLOUDY    20   5  52 W10       30.24R WCI   9
TOLEDO EXPRESS CLOUDY    18   2  49 W13G20    30.24R WCI   5
TOLEDO EXEC    PTSUNNY   20   2  45 NW17G23   30.25R WCI   5
LIMA           CLOUDY    18   8  65 NW10      30.24R WCI   6
$$

OHZ009>014-019>023-028>033-038-089-111800-
   NORTHEAST OHIO

CITY           SKY/WX    TMP DP  RH WIND       PRES   REMARKS
CLE-HOPKINS    LGT SNOW  16   8  71 W13       30.22R WCI   2
CLE-LAKEFRONT  FAIR      19   6  57 NW23      30.19R WCI   2
CUY CO. ARPT   CLOUDY    18   5  57 NW12G21   30.17R WCI   5
LORAIN-ELYRIA  SNOW      15  10  80 W7        30.21S VSB 1/2 WCI   5
ASHTABULA      CLOUDY    15   3  59 NW14G23   30.14R WCI   0
AKRON-CANTON   LGT SNOW  15   7  70 NW14      30.16R WCI   0
WOOSTER        PTSUNNY   15   4  61 W16       30.19R WCI  -1
MANSFIELD      CLOUDY    15   3  59 W12       30.19R WCI   2
YOUNGSTOWN     FLURRIES  16   3  56 NW16G24   30.12R WCI   1
$$

OHZ042-051>053-060>062-070>072-077>081-111800-
  SOUTHWEST OHIO

CITY           SKY/WX    TMP DP  RH WIND       PRES   REMARKS
CINC-COVINGTON FAIR      21   6  52 CALM      30.28S
CINC-LUNKEN    PTSUNNY   21   7  54 S3        30.33R
HAMILTON       FAIR      21   4  47 W6        30.32R WCI  13
DAYTON         PTSUNNY   20  10  65 NW9       30.26S WCI   9
WRIGHT-PAT AFB PTSUNNY   20   8  57 W10       30.26S WCI   9
DAYTON GENERAL FAIR      20   5  52 W7        30.26S WCI  11
WILMINGTON     FAIR      18   6  59 W7        30.26R WCI   9
$$

OHZ036-037-039>041-045>050-054>059-063>069-073>076-082>088-111800-
  CENTRAL AND SOUTHEAST OHIO

CITY           SKY/WX    TMP DP  RH WIND       PRES   REMARKS
COLUMBUS       PTSUNNY   19   7  59 W10       30.25S WCI   7
OSU AIRPORT    CLOUDY    19  10  68 W13       30.24S WCI   6
BOLTON FIELD   PTSUNNY   19  10  68 W9        30.26R WCI   9
RICKENBACK AFB CLOUDY    18  10  69 W6        30.26S WCI  10
NEWARK         PTSUNNY   19   6  57 MISG      30.23S
MARION         LGT SNOW  17   9  70 W7        30.23S WCI   8
LANCASTER      FAIR      17   7  64 SW6       30.26S WCI   9
ZANESVILLE     FAIR      20   2  45 W10       30.23S WCI   9
NEW PHILLY     PTSUNNY   18   3  52 W15G23    30.22R WCI   4
$$



USA.gov is the U.S. government's official web portal to all federal, state and local government web resources and services.